Voltar ao catálogo

SHINSEI

MS-F2

AtivoCiênciaLEO
NORAD 5485·PAYLOAD·🇯🇵 Japan

Lançado Sep 28, 1971 de Uchinoura Space Center

Loading…

Próximas Passagens (próximas 24 horas)

TLE

AtualizadoSource: Space-Track

Época: Sep 14, 2026, 13:56 UTC

1 05485U 71080A   26257.58059627  .00000040  00000-0  17661-4 0  9991
2 05485  32.0579  76.3167 0640163 270.1535  82.5756 12.74258394560664

Acompanhe SHINSEI em tempo real com AllMySat

Download on the App Store